Weather in Kortrijk

Belgium     50°49′25″N   3°15′32″E
temp.,
°C
wind,
m/s
gust,
m/s
humid.,
%
clouds,
%
prec.,
mm/h
press.,
hPa
HPBL,
m
30 november, tue
tue3001:00+4sw51372100 0.0 1014785
04:00+6wsw61490100 0.2 1012922
07:00+8w71589100 1.1 1011829
10:00+9w71489100 0.1 1012802
13:00+9w71491100 1.0 1011754
16:00+10w6138798 0.1 1011815
19:00+11wsw61388100 0.3 1009831
22:00+11sw71588100 0.0 10071237
1 december, wed
wed101:00+10sw81785100 0.1 10041368
04:00+10ssw91780100 0.0 9991227
07:00+10sw91985100 1.9 9951461
10:00+9w6117690 0.8 9961133
13:00+10w7126831 0.9 9961390
16:00+8w61269100 0.1 9971221
19:00+7w5107278 0.4 998948
22:00+6nw4787100 0.8 1001715
2 december, thu
thu201:00+6nnw5973100 2.0 10021092
04:00+5nnw6127291 0.3 10031175
07:00+4nw7126785 0.9 10041334
10:00+4nw7115985 0.2 10051518
13:00+4wnw71272100 0.6 10051355
16:00+6n61158100 2.4 10061119
19:00+4nw41074100 3.8 1009473
22:00+4wnw4107859 0.8 1011290
3 december, fri
fri301:00+3w388479 1.2 1013251
04:00+3w3886100 0.1 1013260
07:00+2sw3984100 0.1 1012310
10:00+3ssw4117833 0.0 1011418
13:00+4ssw51269100 0.0 1009715
16:00+4ssw61374100 0.0 1006788
19:00+2s61595100 1.6 1002651
22:00+2s51193100 2.3 999521
4 december, sat
sat401:00+5wsw41297100 2.3 1000579
04:00+7w6128897 0.1 1002904
07:00+6wsw51287100 0.1 1003759
10:00+6w5118392 0.2 1004852
13:00+7w6107135 0.3 10051136
16:00+6w486990 0.0 1005695
19:00+5sw4878100 0.1 1006383
22:00+4wsw41085100 0.0 1006428